Hourly Weather Bolshoe Podoveche

Today, 27 July, Tuesday

Time Temperature Precipitation Wind Pressure Humidity
00:00 +20°C° 0 mm 2 mps 754 mmHg 59%
01:00 +20°C° 0 mm 2 mps 755 mmHg 60%
02:00 +19°C° 0 mm 2 mps 755 mmHg 61%
03:00 +19°C° 0 mm 2 mps 755 mmHg 62%
04:00 +19°C° 0 mm 2 mps 755 mmHg 63%
05:00 +20°C° 0 mm 1 mps 755 mmHg 65%
06:00 +20°C° 0 mm 1 mps 755 mmHg 67%
07:00 +22°C° 0 mm 1 mps 755 mmHg 62%
08:00 +24°C° 0 mm 1 mps 755 mmHg 56%
09:00 +26°C° 0 mm 2 mps 754 mmHg 51%
10:00 +27°C° 0 mm 2 mps 754 mmHg 46%
11:00 +29°C° 0 mm 2 mps 754 mmHg 41%
12:00 +30°C° 0 mm 2 mps 754 mmHg 37%
13:00 +29°C° 0 mm 2 mps 753 mmHg 40%
14:00 +29°C° 0 mm 3 mps 753 mmHg 43%
15:00 +28°C° 0 mm 3 mps 753 mmHg 47%
16:00 +27°C° 0.2 mm 3 mps 753 mmHg 52%
17:00 +25°C° 0.2 mm 3 mps 753 mmHg 57%
18:00 +24°C° 0.2 mm 3 mps 753 mmHg 62%
19:00 +23°C° 0.2 mm 2 mps 752 mmHg 68%
20:00 +21°C° 0.2 mm 2 mps 752 mmHg 74%
21:00 +21°C° 0.2 mm 1 mps 752 mmHg 80%
22:00 +19°C° 0 mm 2 mps 752 mmHg 82%
23:00 +19°C° 0 mm 2 mps 752 mmHg 83%

Tomorrow, 28 July, Wednesday

Time Temperature Precipitation Wind Pressure Humidity
00:00 +18°C° 0 mm 2 mps 752 mmHg 84%
01:00 +18°C° 0 mm 2 mps 752 mmHg 84%
02:00 +19°C° 0 mm 1 mps 752 mmHg 83%
03:00 +19°C° 0 mm 1 mps 752 mmHg 83%
04:00 +19°C° 0 mm 1 mps 752 mmHg 82%
05:00 +20°C° 0 mm 1 mps 752 mmHg 81%
06:00 +20°C° 0 mm 1 mps 752 mmHg 80%
07:00 +22°C° 0 mm 1 mps 751 mmHg 72%
08:00 +24°C° 0 mm 1 mps 751 mmHg 64%
09:00 +26°C° 0 mm 1 mps 751 mmHg 55%
10:00 +28°C° 0 mm 2 mps 751 mmHg 50%
11:00 +29°C° 0 mm 2 mps 750 mmHg 44%
12:00 +31°C° 0 mm 3 mps 750 mmHg 39%
13:00 +29°C° 0.2 mm 3 mps 750 mmHg 44%
14:00 +28°C° 0.2 mm 3 mps 749 mmHg 49%
15:00 +26°C° 0.2 mm 4 mps 749 mmHg 55%
16:00 +25°C° 0.1 mm 3 mps 749 mmHg 60%
17:00 +24°C° 0.1 mm 3 mps 749 mmHg 65%
18:00 +21°C° 0.1 mm 3 mps 750 mmHg 69%
19:00 +21°C° 0 mm 3 mps 749 mmHg 69%
20:00 +21°C° 0 mm 3 mps 748 mmHg 69%
21:00 +21°C° 0 mm 3 mps 747 mmHg 68%
22:00 +21°C° 0 mm 4 mps 747 mmHg 69%
23:00 +20°C° 0 mm 4 mps 747 mmHg 70%

Day after tomorrow, 29 July, Thursday

Time Temperature Precipitation Wind Pressure Humidity
00:00 +20°C° 0 mm 4 mps 747 mmHg 72%
01:00 +20°C° 0 mm 4 mps 746 mmHg 73%
02:00 +19°C° 0 mm 4 mps 746 mmHg 75%
03:00 +19°C° 0 mm 4 mps 746 mmHg 77%
04:00 +19°C° 0 mm 4 mps 745 mmHg 79%
05:00 +19°C° 0 mm 4 mps 745 mmHg 81%
06:00 +19°C° 0 mm 4 mps 745 mmHg 83%
07:00 +21°C° 0 mm 4 mps 745 mmHg 77%
08:00 +23°C° 0 mm 5 mps 744 mmHg 71%
09:00 +26°C° 0 mm 5 mps 744 mmHg 66%
10:00 +27°C° 0 mm 6 mps 744 mmHg 59%
11:00 +28°C° 0 mm 6 mps 744 mmHg 53%
12:00 +30°C° 0 mm 6 mps 744 mmHg 47%
13:00 +30°C° 0 mm 6 mps 744 mmHg 45%
14:00 +32°C° 0 mm 6 mps 744 mmHg 42%
15:00 +32°C° 0 mm 7 mps 744 mmHg 40%
16:00 +32°C° 0 mm 6 mps 744 mmHg 42%
17:00 +30°C° 0 mm 5 mps 744 mmHg 44%
18:00 +29°C° 0 mm 4 mps 744 mmHg 46%
19:00 +28°C° 0 mm 3 mps 744 mmHg 50%
20:00 +26°C° 0 mm 2 mps 744 mmHg 55%
21:00 +24°C° 0 mm 1 mps 744 mmHg 59%
22:00 +24°C° 0 mm 1 mps 744 mmHg 60%
23:00 +24°C° 0 mm 1 mps 744 mmHg 60%

30 July, Friday

Time Temperature Precipitation Wind Pressure Humidity
00:00 +24°C° 0 mm 1 mps 744 mmHg 60%
01:00 +23°C° 0.1 mm 1 mps 744 mmHg 65%
02:00 +23°C° 0.1 mm 2 mps 744 mmHg 70%
03:00 +21°C° 0.1 mm 2 mps 744 mmHg 75%
04:00 +21°C° 0.1 mm 2 mps 744 mmHg 78%
05:00 +21°C° 0.1 mm 2 mps 744 mmHg 81%
06:00 +21°C° 0.1 mm 2 mps 744 mmHg 83%
07:00 +24°C° 0 mm 2 mps 744 mmHg 76%
08:00 +25°C° 0 mm 2 mps 744 mmHg 68%
09:00 +27°C° 0 mm 2 mps 744 mmHg 60%
10:00 +28°C° 0.1 mm 2 mps 744 mmHg 56%
11:00 +29°C° 0.1 mm 2 mps 744 mmHg 52%
12:00 +30°C° 0.1 mm 2 mps 744 mmHg 48%
13:00 +30°C° 0.1 mm 2 mps 744 mmHg 49%
14:00 +30°C° 0.1 mm 2 mps 744 mmHg 51%
15:00 +30°C° 0.1 mm 2 mps 744 mmHg 52%
16:00 +29°C° 0 mm 2 mps 744 mmHg 53%
17:00 +29°C° 0 mm 2 mps 744 mmHg 53%
18:00 +29°C° 0 mm 3 mps 743 mmHg 53%
19:00 +28°C° 0 mm 3 mps 744 mmHg 55%
20:00 +27°C° 0 mm 3 mps 744 mmHg 56%
21:00 +26°C° 0 mm 3 mps 744 mmHg 58%
22:00 +25°C° 0 mm 2 mps 744 mmHg 60%
23:00 +25°C° 0 mm 2 mps 744 mmHg 62%

31 July, Saturday

Time Temperature Precipitation Wind Pressure Humidity
00:00 +24°C° 0 mm 2 mps 744 mmHg 65%
01:00 +23°C° 0 mm 2 mps 744 mmHg 66%
02:00 +23°C° 0 mm 2 mps 745 mmHg 67%
03:00 +21°C° 0 mm 2 mps 745 mmHg 68%
04:00 +21°C° 0 mm 2 mps 745 mmHg 68%
05:00 +21°C° 0 mm 2 mps 745 mmHg 67%
06:00 +21°C° 0 mm 2 mps 745 mmHg 67%
07:00 +24°C° 0 mm 2 mps 745 mmHg 61%
08:00 +26°C° 0 mm 2 mps 745 mmHg 54%
09:00 +28°C° 0 mm 3 mps 745 mmHg 48%
10:00 +29°C° 0 mm 3 mps 745 mmHg 42%
11:00 +30°C° 0 mm 4 mps 745 mmHg 36%
12:00 +33°C° 0 mm 4 mps 745 mmHg 30%
13:00 +33°C° 0 mm 4 mps 745 mmHg 29%
14:00 +34°C° 0 mm 5 mps 744 mmHg 29%
15:00 +34°C° 0 mm 5 mps 744 mmHg 28%
16:00 +34°C° 0 mm 5 mps 744 mmHg 30%
17:00 +34°C° 0 mm 5 mps 744 mmHg 32%
18:00 +33°C° 0 mm 5 mps 744 mmHg 34%
19:00 +30°C° 0 mm 4 mps 744 mmHg 40%
20:00 +28°C° 0 mm 3 mps 745 mmHg 47%
21:00 +26°C° 0 mm 2 mps 745 mmHg 53%
22:00 +25°C° 0 mm 1 mps 745 mmHg 56%
23:00 +24°C° 0 mm 1 mps 745 mmHg 58%

1 August, Sunday

Time Temperature Precipitation Wind Pressure Humidity
00:00 +24°C° 0 mm 1 mps 745 mmHg 60%
01:00 +23°C° 0 mm 1 mps 745 mmHg 61%
02:00 +23°C° 0 mm 2 mps 745 mmHg 62%
03:00 +23°C° 0 mm 2 mps 745 mmHg 62%
04:00 +23°C° 0 mm 2 mps 745 mmHg 61%
05:00 +22°C° 0 mm 3 mps 744 mmHg 60%
06:00 +22°C° 0 mm 3 mps 744 mmHg 60%
07:00 +26°C° 0 mm 5 mps 744 mmHg 52%
08:00 +28°C° 0 mm 6 mps 743 mmHg 44%
09:00 +30°C° 0 mm 7 mps 743 mmHg 36%
10:00 +33°C° 0 mm 8 mps 743 mmHg 34%
11:00 +34°C° 0 mm 8 mps 743 mmHg 32%
12:00 +37°C° 0 mm 9 mps 742 mmHg 31%
13:00 +35°C° 0 mm 9 mps 742 mmHg 32%
14:00 +35°C° 0 mm 9 mps 742 mmHg 34%
15:00 +35°C° 0 mm 8 mps 742 mmHg 35%
16:00 +34°C° 0 mm 8 mps 742 mmHg 39%
17:00 +33°C° 0 mm 7 mps 742 mmHg 43%
18:00 +32°C° 0 mm 7 mps 743 mmHg 47%
19:00 +29°C° 0 mm 5 mps 743 mmHg 54%
20:00 +27°C° 0 mm 4 mps 744 mmHg 62%
21:00 +25°C° 0 mm 3 mps 744 mmHg 70%
22:00 +24°C° 0 mm 2 mps 744 mmHg 72%
23:00 +23°C° 0 mm 2 mps 745 mmHg 74%
Show more

We Need Your Consent

Meteoprog and our Service Providers may store and access personal data such as cookies, device identifiers or other similar technologies on your device and process such data to personalise content and ads, as well as provide social media features and to analyse the traffic.

  • Store and/or access information on your device

    Cookies, device identifiers or other information can be stored or accessed on your device for the purposes indicated above.

  • Personalised ads and content, ad and content measurement, audience insights, and products development

    Ads and content can be personalised based on a profile. More data can be added to better personalise ads and content. Ad and content performance can be measured. Insights about the audience who saw the ads and content can be derived. Such data can be used to develop or improve user’s experience, systems and software.

By clicking ‘I Agree’ you will allow the use of indicated cookies, device identifiers, web beacons or other similar technologies. Your settings can be changed in the browser on your device.

For certain purposes, legitimate interests may be relied on, rather than consent. You can read more about this in our Privacy and Cookie Policy.